| time (UTC) | temp F | wind direction | speed MPH | gust MPH | rain 1hr in | rain 24hr in | rain mn in | humidity % | barometer mb |
| 20260509012402 | 92 | 214 | 2.0 | 9.0 | 0.00 | 0.00 | 0.00 | 11 | 1009.4 |
| 20260509011902 | 92 | 251 | 3.0 | 8.0 | 0.00 | 0.00 | 0.00 | 11 | 1009.4 |
| 20260509011402 | 92 | 246 | 2.0 | 8.0 | 0.00 | 0.00 | 0.00 | 11 | 1009.5 |
| 20260509010902 | 92 | 214 | 3.0 | 8.0 | 0.00 | 0.00 | 0.00 | 11 | 1009.4 |
| 20260509005902 | 93 | 220 | 3.0 | 7.0 | 0.00 | 0.00 | 0.00 | 11 | 1009.4 |
| 20260509005403 | 93 | 70 | 2.0 | 7.0 | 0.00 | 0.00 | 0.00 | 11 | 1009.4 |
| 20260509004902 | 93 | 218 | 3.0 | 8.0 | 0.00 | 0.00 | 0.00 | 11 | 1009.5 |
| 20260509004403 | 93 | 241 | 3.0 | 8.0 | 0.00 | 0.00 | 0.00 | 11 | 1009.4 |
| 20260509003903 | 94 | 183 | 3.0 | 8.0 | 0.00 | 0.00 | 0.00 | 11 | 1009.5 |
| 20260509003403 | 94 | 299 | 2.0 | 5.0 | 0.00 | 0.00 | 0.00 | 11 | 1009.5 |
| 20260509002903 | 94 | 262 | 1.0 | 8.0 | 0.00 | 0.00 | 0.00 | 10 | 1009.5 |
| 20260509002402 | 94 | 11 | 3.0 | 9.0 | 0.00 | 0.00 | 0.00 | 10 | 1009.5 |
| 20260509001903 | 94 | 205 | 3.0 | 13.0 | 0.00 | 0.00 | 0.00 | 10 | 1009.6 |
| 20260509001402 | 94 | 204 | 3.0 | 13.0 | 0.00 | 0.00 | 0.00 | 10 | 1009.6 |
| 20260509000403 | 95 | 262 | 2.0 | 7.0 | 0.00 | 0.00 | 0.00 | 10 | 1009.6 |
| 20260508235903 | 95 | 230 | 3.0 | 8.0 | 0.00 | 0.00 | 0.00 | 10 | 1009.5 |
| 20260508235402 | 94 | 317 | 3.0 | 12.0 | 0.00 | 0.00 | 0.00 | 10 | 1009.5 |
| 20260508234902 | 95 | 312 | 5.0 | 12.0 | 0.00 | 0.00 | 0.00 | 10 | 1009.6 |
| 20260508234403 | 95 | 313 | 3.0 | 9.0 | 0.00 | 0.00 | 0.00 | 10 | 1009.6 |
| 20260508233902 | 95 | 253 | 2.0 | 9.0 | 0.00 | 0.00 | 0.00 | 10 | 1009.6 |
| 20260508233403 | 95 | 235 | 3.0 | 12.0 | 0.00 | 0.00 | 0.00 | 9 | 1009.7 |
| 20260508232403 | 95 | 189 | 4.0 | 14.0 | 0.00 | 0.00 | 0.00 | 10 | 1009.8 |
| 20260508231903 | 96 | 236 | 2.0 | 9.0 | 0.00 | 0.00 | 0.00 | 10 | 1009.7 |
| 20260508231402 | 96 | 238 | 2.0 | 7.0 | 0.00 | 0.00 | 0.00 | 10 | 1009.9 |
| 20260508230403 | 96 | 30 | 3.0 | 7.0 | 0.00 | 0.00 | 0.00 | 10 | 1009.9 |
| 20260508225903 | 96 | 235 | 3.0 | 7.0 | 0.00 | 0.00 | 0.00 | 10 | 1009.9 |
| 20260508225403 | 96 | 214 | 3.0 | 12.0 | 0.00 | 0.00 | 0.00 | 10 | 1009.9 |
| 20260508224902 | 96 | 215 | 3.0 | 12.0 | 0.00 | 0.00 | 0.00 | 10 | 1010.0 |
| 20260508223903 | 97 | 238 | 4.0 | 10.0 | 0.00 | 0.00 | 0.00 | 10 | 1010.0 |
| 20260508223403 | 97 | 205 | 4.0 | 10.0 | 0.00 | 0.00 | 0.00 | 10 | 1010.2 |
| 20260508222903 | 96 | 302 | 3.0 | 7.0 | 0.00 | 0.00 | 0.00 | 9 | 1010.3 |
| 20260508222403 | 96 | 213 | 3.0 | 13.0 | 0.00 | 0.00 | 0.00 | 10 | 1010.3 |
| 20260508221403 | 96 | 254 | 2.0 | 10.0 | 0.00 | 0.00 | 0.00 | 10 | 1010.5 |
| 20260508220903 | 96 | 227 | 3.0 | 13.0 | 0.00 | 0.00 | 0.00 | 10 | 1010.5 |
| 20260508220403 | 95 | 211 | 4.0 | 13.0 | 0.00 | 0.00 | 0.00 | 11 | 1010.6 |
| 20260508215903 | 96 | 224 | 2.0 | 13.0 | 0.00 | 0.00 | 0.00 | 11 | 1010.6 |
| 20260508215403 | 97 | 280 | 3.0 | 13.0 | 0.00 | 0.00 | 0.00 | 11 | 1010.8 |
| 20260508214903 | 96 | 215 | 3.0 | 9.0 | 0.00 | 0.00 | 0.00 | 11 | 1010.8 |
| 20260508214404 | 96 | 234 | 3.0 | 9.0 | 0.00 | 0.00 | 0.00 | 12 | 1011.0 |
| 20260508213903 | 96 | 278 | 4.0 | 9.0 | 0.00 | 0.00 | 0.00 | 12 | 1011.1 |
| 20260508213403 | 96 | 358 | 3.0 | 9.0 | 0.00 | 0.00 | 0.00 | 12 | 1011.1 |
| 20260508212903 | 96 | 228 | 2.0 | 13.0 | 0.00 | 0.00 | 0.00 | 12 | 1011.2 |
| 20260508212404 | 96 | 169 | 4.0 | 13.0 | 0.00 | 0.00 | 0.00 | 11 | 1011.3 |
| 20260508211902 | 96 | 213 | 3.0 | 10.0 | 0.00 | 0.00 | 0.00 | 11 | 1011.4 |
| 20260508210903 | 95 | 230 | 3.0 | 10.0 | 0.00 | 0.00 | 0.00 | 11 | 1011.4 |
| 20260508210403 | 96 | 214 | 3.0 | 10.0 | 0.00 | 0.00 | 0.00 | 12 | 1011.5 |
| 20260508205903 | 95 | 328 | 2.0 | 9.0 | 0.00 | 0.00 | 0.00 | 13 | 1011.5 |
| 20260508205402 | 95 | 216 | 3.0 | 10.0 | 0.00 | 0.00 | 0.00 | 12 | 1011.7 |
| 20260508204902 | 95 | 166 | 2.0 | 10.0 | 0.00 | 0.00 | 0.00 | 12 | 1011.7 |
| 20260508204402 | 96 | 337 | 3.0 | 10.0 | 0.00 | 0.00 | 0.00 | 12 | 1011.8 |
| 20260508203903 | 96 | 220 | 2.0 | 8.0 | 0.00 | 0.00 | 0.00 | 12 | 1011.7 |
| 20260508202403 | 96 | 265 | 2.0 | 12.0 | 0.00 | 0.00 | 0.00 | 12 | 1012.1 |
| 20260508201902 | 95 | 291 | 5.0 | 12.0 | 0.00 | 0.00 | 0.00 | 14 | 1012.0 |
| 20260508201402 | 95 | 229 | 2.0 | 8.0 | 0.00 | 0.00 | 0.00 | 13 | 1012.1 |
| 20260508200902 | 95 | 196 | 2.0 | 12.0 | 0.00 | 0.00 | 0.00 | 13 | 1012.1 |
| 20260508200403 | 94 | 232 | 3.0 | 12.0 | 0.00 | 0.00 | 0.00 | 13 | 1012.3 |
| 20260508195903 | 94 | 159 | 2.0 | 9.0 | 0.00 | 0.00 | 0.00 | 13 | 1012.3 |
| 20260508194903 | 94 | 213 | 4.0 | 12.0 | 0.00 | 0.00 | 0.00 | 14 | 1012.6 |
| 20260508194403 | 93 | 236 | 2.0 | 10.0 | 0.00 | 0.00 | 0.00 | 14 | 1012.6 |
| 20260508193903 | 93 | 329 | 2.0 | 10.0 | 0.00 | 0.00 | 0.00 | 14 | 1012.7 |
| 20260508193403 | 93 | 177 | 2.0 | 8.0 | 0.00 | 0.00 | 0.00 | 14 | 1012.7 |
| 20260508192902 | 93 | 219 | 3.0 | 10.0 | 0.00 | 0.00 | 0.00 | 14 | 1012.7 |
| 20260508192402 | 92 | 301 | 3.0 | 10.0 | 0.00 | 0.00 | 0.00 | 14 | 1012.8 |
| 20260508191903 | 92 | 228 | 2.0 | 10.0 | 0.00 | 0.00 | 0.00 | 14 | 1012.9 |
| 20260508191403 | 93 | 345 | 3.0 | 9.0 | 0.00 | 0.00 | 0.00 | 15 | 1012.9 |
| 20260508190903 | 93 | 161 | 2.0 | 6.0 | 0.00 | 0.00 | 0.00 | 14 | 1013.1 |
| 20260508190403 | 92 | 221 | 2.0 | 7.0 | 0.00 | 0.00 | 0.00 | 14 | 1013.2 |
| 20260508185902 | 93 | 209 | 3.0 | 9.0 | 0.00 | 0.00 | 0.00 | 14 | 1013.1 |
| 20260508185403 | 92 | 320 | 2.0 | 10.0 | 0.00 | 0.00 | 0.00 | 15 | 1013.1 |
| 20260508184903 | 91 | 303 | 3.0 | 10.0 | 0.00 | 0.00 | 0.00 | 15 | 1013.2 |
| 20260508184403 | 91 | 223 | 3.0 | 10.0 | 0.00 | 0.00 | 0.00 | 14 | 1013.2 |
| 20260508183402 | 90 | 254 | 1.0 | 9.0 | 0.00 | 0.00 | 0.00 | 16 | 1013.4 |
| 20260508182903 | 90 | 168 | 3.0 | 7.0 | 0.00 | 0.00 | 0.00 | 15 | 1013.5 |
| 20260508182402 | 89 | 291 | 2.0 | 8.0 | 0.00 | 0.00 | 0.00 | 17 | 1013.5 |
| 20260508181903 | 88 | 45 | 2.0 | 8.0 | 0.00 | 0.00 | 0.00 | 17 | 1013.6 |
| 20260508181402 | 88 | 225 | 2.0 | 7.0 | 0.00 | 0.00 | 0.00 | 16 | 1013.6 |
| 20260508180902 | 88 | 239 | 2.0 | 5.0 | 0.00 | 0.00 | 0.00 | 17 | 1013.7 |
| 20260508180403 | 88 | 215 | 2.0 | 3.0 | 0.00 | 0.00 | 0.00 | 16 | 1013.8 |
| 20260508175904 | 88 | 184 | 2.0 | 3.0 | 0.00 | 0.00 | 0.00 | 17 | 1013.9 |
| 20260508175403 | 87 | 185 | 1.0 | 3.0 | 0.00 | 0.00 | 0.00 | 17 | 1014.0 |
| 20260508174903 | 85 | 77 | 2.0 | 3.0 | 0.00 | 0.00 | 0.00 | 18 | 1014.0 |
| 20260508174403 | 86 | 119 | 2.0 | 3.0 | 0.00 | 0.00 | 0.00 | 17 | 1014.0 |
| 20260508172902 | 84 | 55 | 2.0 | 5.0 | 0.00 | 0.00 | 0.00 | 19 | 1014.1 |
| 20260508172403 | 84 | 199 | 2.0 | 5.0 | 0.00 | 0.00 | 0.00 | 19 | 1014.2 |
| 20260508171902 | 84 | 234 | 1.0 | 3.0 | 0.00 | 0.00 | 0.00 | 19 | 1014.3 |
| 20260508171403 | 83 | 76 | 1.0 | 3.0 | 0.00 | 0.00 | 0.00 | 19 | 1014.3 |
| 20260508170903 | 83 | 163 | 1.0 | 3.0 | 0.00 | 0.00 | 0.00 | 20 | 1014.4 |
| 20260508165903 | 84 | 237 | 1.0 | 3.0 | 0.00 | 0.00 | 0.00 | 19 | 1014.5 |
| 20260508164903 | 81 | 231 | 0.0 | 3.0 | 0.00 | 0.00 | 0.00 | 22 | 1014.6 |
| 20260508163902 | 81 | 200 | 2.0 | 3.0 | 0.00 | 0.00 | 0.00 | 21 | 1014.6 |
| 20260508163402 | 81 | 66 | 1.0 | 3.0 | 0.00 | 0.00 | 0.00 | 23 | 1014.7 |
| 20260508162903 | 80 | 195 | 1.0 | 3.0 | 0.00 | 0.00 | 0.00 | 22 | 1014.7 |
| 20260508162403 | 80 | 192 | 1.0 | 3.0 | 0.00 | 0.00 | 0.00 | 23 | 1014.7 |
| 20260508161903 | 79 | 147 | 1.0 | 5.0 | 0.00 | 0.00 | 0.00 | 24 | 1014.8 |
| 20260508161402 | 79 | 218 | 1.0 | 5.0 | 0.00 | 0.00 | 0.00 | 24 | 1014.7 |
| 20260508160903 | 79 | 95 | 2.0 | 3.0 | 0.00 | 0.00 | 0.00 | 24 | 1014.8 |
| 20260508155903 | 77 | 176 | 1.0 | 3.0 | 0.00 | 0.00 | 0.00 | 26 | 1014.7 |
| 20260508155402 | 76 | 204 | 1.0 | 3.0 | 0.00 | 0.00 | 0.00 | 26 | 1014.7 |
| 20260508154903 | 76 | 234 | 1.0 | 5.0 | 0.00 | 0.00 | 0.00 | 27 | 1014.8 |
| 20260508153903 | 75 | 150 | 1.0 | 5.0 | 0.00 | 0.00 | 0.00 | 28 | 1014.8 |
| 20260508153403 | 74 | 190 | 2.0 | 5.0 | 0.00 | 0.00 | 0.00 | 28 | 1014.9 |
| 20260508152904 | 74 | 158 | 2.0 | 5.0 | 0.00 | 0.00 | 0.00 | 29 | 1014.9 |
| 20260508152402 | 73 | 187 | 1.0 | 3.0 | 0.00 | 0.00 | 0.00 | 30 | 1014.9 |
| 20260508151903 | 73 | 194 | 2.0 | 6.0 | 0.00 | 0.00 | 0.00 | 29 | 1014.9 |
| 20260508151403 | 72 | 115 | 2.0 | 6.0 | 0.00 | 0.00 | 0.00 | 30 | 1014.9 |
| 20260508150403 | 71 | 195 | 1.0 | 3.0 | 0.00 | 0.00 | 0.00 | 31 | 1014.9 |
| 20260508145902 | 71 | 109 | 1.0 | 3.0 | 0.00 | 0.00 | 0.00 | 32 | 1014.9 |
| 20260508145402 | 70 | 167 | 1.0 | 5.0 | 0.00 | 0.00 | 0.00 | 32 | 1014.9 |
| 20260508144403 | 70 | 199 | 2.0 | 5.0 | 0.00 | 0.00 | 0.00 | 33 | 1015.0 |
| 20260508143403 | 69 | 186 | 2.0 | 5.0 | 0.00 | 0.00 | 0.00 | 34 | 1014.9 |
| 20260508142904 | 69 | 178 | 1.0 | 5.0 | 0.00 | 0.00 | 0.00 | 34 | 1014.9 |
| 20260508142403 | 68 | 147 | 1.0 | 3.0 | 0.00 | 0.00 | 0.00 | 36 | 1014.9 |
| 20260508141903 | 68 | 160 | 1.0 | 3.0 | 0.00 | 0.00 | 0.00 | 35 | 1014.8 |
| 20260508141403 | 67 | 131 | 1.0 | 6.0 | 0.00 | 0.00 | 0.00 | 35 | 1014.7 |
| 20260508140903 | 67 | 93 | 2.0 | 6.0 | 0.00 | 0.00 | 0.00 | 36 | 1014.6 |
| 20260508135902 | 66 | 96 | 2.0 | 6.0 | 0.00 | 0.00 | 0.00 | 37 | 1014.6 |
| 20260508133903 | 62 | 88 | 1.0 | 2.0 | 0.00 | 0.00 | 0.00 | 44 | 1014.5 |
| 20260508133403 | 62 | 90 | 0.0 | 3.0 | 0.00 | 0.00 | 0.00 | 45 | 1014.5 |
| 20260508132403 | 60 | 89 | 1.0 | 3.0 | 0.00 | 0.00 | 0.00 | 48 | 1014.4 |
| 20260508131902 | 60 | 80 | 1.0 | 2.0 | 0.00 | 0.00 | 0.00 | 49 | 1014.3 |
| 20260508131403 | 59 | 86 | 1.0 | 2.0 | 0.00 | 0.00 | 0.00 | 50 | 1014.2 |
| 20260508130903 | 59 | 89 | 1.0 | 2.0 | 0.00 | 0.00 | 0.00 | 49 | 1014.2 |
| 20260508125903 | 58 | 67 | 1.0 | 2.0 | 0.00 | 0.00 | 0.00 | 49 | 1014.1 |
| 20260508125403 | 58 | 81 | 0.0 | 2.0 | 0.00 | 0.00 | 0.00 | 49 | 1014.0 |
| 20260508124903 | 58 | 81 | 0.0 | 2.0 | 0.00 | 0.00 | 0.00 | 49 | 1013.9 |
| 20260508123902 | 58 | 80 | 0.0 | 1.0 | 0.00 | 0.00 | 0.00 | 49 | 1013.8 |
| 20260508123403 | 58 | 80 | 0.0 | 2.0 | 0.00 | 0.00 | 0.00 | 49 | 1013.8 |
| 20260508122904 | 58 | 80 | 0.0 | 2.0 | 0.00 | 0.00 | 0.00 | 48 | 1013.8 |
| 20260508122403 | 58 | 80 | 0.0 | 2.0 | 0.00 | 0.00 | 0.00 | 48 | 1013.7 |
| 20260508121903 | 58 | 82 | 1.0 | 2.0 | 0.00 | 0.00 | 0.00 | 48 | 1013.6 |
| 20260508121403 | 58 | 97 | 0.0 | 2.0 | 0.00 | 0.00 | 0.00 | 48 | 1013.6 |
| 20260508120902 | 58 | 98 | 0.0 | 2.0 | 0.00 | 0.00 | 0.00 | 48 | 1013.5 |
| 20260508120403 | 58 | 97 | 1.0 | 3.0 | 0.00 | 0.00 | 0.00 | 47 | 1013.5 |
| 20260508115903 | 59 | 93 | 1.0 | 3.0 | 0.00 | 0.00 | 0.00 | 47 | 1013.5 |
| 20260508115403 | 59 | 98 | 1.0 | 3.0 | 0.00 | 0.00 | 0.00 | 47 | 1013.4 |
| 20260508114903 | 59 | 105 | 0.0 | 2.0 | 0.00 | 0.00 | 0.00 | 47 | 1013.4 |
| 20260508114403 | 59 | 95 | 1.0 | 3.0 | 0.00 | 0.00 | 0.00 | 47 | 1013.5 |
| 20260508113903 | 59 | 87 | 1.0 | 3.0 | 0.00 | 0.00 | 0.00 | 46 | 1013.5 |
| 20260508113403 | 59 | 81 | 0.0 | 2.0 | 0.00 | 0.00 | 0.00 | 46 | 1013.4 |
| 20260508112903 | 59 | 78 | 0.0 | 2.0 | 0.00 | 0.00 | 0.00 | 47 | 1013.4 |
| 20260508112404 | 59 | 78 | 0.0 | 1.0 | 0.00 | 0.00 | 0.00 | 46 | 1013.3 |
| 20260508110903 | 60 | 78 | 1.0 | 3.0 | 0.00 | 0.00 | 0.00 | 45 | 1013.3 |
| 20260508110403 | 60 | 83 | 1.0 | 3.0 | 0.00 | 0.00 | 0.00 | 45 | 1013.1 |
| 20260508105903 | 60 | 97 | 0.0 | 2.0 | 0.00 | 0.00 | 0.00 | 45 | 1013.1 |
| 20260508105403 | 60 | 91 | 0.0 | 2.0 | 0.00 | 0.00 | 0.00 | 45 | 1013.1 |
| 20260508104903 | 60 | 85 | 0.0 | 2.0 | 0.00 | 0.00 | 0.00 | 45 | 1013.2 |
| 20260508104403 | 60 | 85 | 0.0 | 2.0 | 0.00 | 0.00 | 0.00 | 45 | 1013.2 |
| 20260508103902 | 60 | 84 | 1.0 | 2.0 | 0.00 | 0.00 | 0.00 | 45 | 1013.1 |
| 20260508102903 | 61 | 84 | 1.0 | 3.0 | 0.00 | 0.00 | 0.00 | 45 | 1013.1 |
| 20260508102403 | 61 | 77 | 0.0 | 2.0 | 0.00 | 0.00 | 0.00 | 45 | 1013.1 |
| 20260508101902 | 61 | 64 | 1.0 | 2.0 | 0.00 | 0.00 | 0.00 | 44 | 1013.1 |
| 20260508101403 | 61 | 87 | 0.0 | 1.0 | 0.00 | 0.00 | 0.00 | 44 | 1013.1 |
| 20260508100903 | 61 | 87 | 0.0 | 1.0 | 0.00 | 0.00 | 0.00 | 43 | 1013.1 |
| 20260508100402 | 61 | 87 | 0.0 | 1.0 | 0.00 | 0.00 | 0.00 | 43 | 1013.0 |
| 20260508095903 | 62 | 87 | 0.0 | 2.0 | 0.00 | 0.00 | 0.00 | 42 | 1013.1 |
| 20260508095403 | 62 | 87 | 0.0 | 2.0 | 0.00 | 0.00 | 0.00 | 42 | 1012.9 |
| 20260508094902 | 62 | 87 | 0.0 | 2.0 | 0.00 | 0.00 | 0.00 | 42 | 1012.9 |
| 20260508094403 | 62 | 72 | 1.0 | 2.0 | 0.00 | 0.00 | 0.00 | 42 | 1012.9 |
| 20260508093403 | 62 | 98 | 1.0 | 3.0 | 0.00 | 0.00 | 0.00 | 41 | 1012.9 |
| 20260508091903 | 63 | 69 | 0.0 | 2.0 | 0.00 | 0.00 | 0.00 | 40 | 1012.9 |
| 20260508090903 | 63 | 88 | 0.0 | 3.0 | 0.00 | 0.00 | 0.00 | 39 | 1013.0 |
| 20260508090402 | 63 | 91 | 0.0 | 3.0 | 0.00 | 0.00 | 0.00 | 40 | 1013.0 |
| 20260508085903 | 64 | 96 | 1.0 | 2.0 | 0.00 | 0.00 | 0.00 | 40 | 1012.9 |
| 20260508085403 | 64 | 61 | 0.0 | 2.0 | 0.00 | 0.00 | 0.00 | 39 | 1013.0 |
| 20260508084903 | 64 | 61 | 1.0 | 2.0 | 0.00 | 0.00 | 0.00 | 38 | 1013.0 |
| 20260508084404 | 65 | 55 | 1.0 | 2.0 | 0.00 | 0.00 | 0.00 | 38 | 1013.1 |
| 20260508083904 | 65 | 54 | 0.0 | 2.0 | 0.00 | 0.00 | 0.00 | 38 | 1013.1 |
| 20260508083403 | 65 | 46 | 1.0 | 2.0 | 0.00 | 0.00 | 0.00 | 38 | 1013.1 |
| 20260508082903 | 65 | 45 | 0.0 | 3.0 | 0.00 | 0.00 | 0.00 | 38 | 1013.2 |
| 20260508082402 | 65 | 71 | 1.0 | 3.0 | 0.00 | 0.00 | 0.00 | 38 | 1013.3 |
| 20260508081902 | 65 | 71 | 0.0 | 2.0 | 0.00 | 0.00 | 0.00 | 38 | 1013.3 |
| 20260508081402 | 65 | 72 | 1.0 | 2.0 | 0.00 | 0.00 | 0.00 | 37 | 1013.3 |
| 20260508080902 | 65 | 64 | 1.0 | 2.0 | 0.00 | 0.00 | 0.00 | 38 | 1013.2 |
| 20260508080404 | 65 | 59 | 1.0 | 2.0 | 0.00 | 0.00 | 0.00 | 38 | 1013.3 |
| 20260508075903 | 65 | 81 | 0.0 | 0.0 | 0.00 | 0.00 | 0.00 | 39 | 1013.3 |
| 20260508075404 | 65 | 81 | 0.0 | 0.0 | 0.00 | 0.00 | 0.00 | 40 | 1013.4 |
| 20260508074903 | 65 | 81 | 0.0 | 0.0 | 0.00 | 0.00 | 0.00 | 42 | 1013.5 |
| 20260508074403 | 65 | 81 | 0.0 | 0.0 | 0.00 | 0.00 | 0.00 | 41 | 1013.5 |
| 20260508073903 | 66 | 81 | 0.0 | 0.0 | 0.00 | 0.00 | 0.00 | 38 | 1013.6 |
| 20260508073402 | 66 | 81 | 0.0 | 0.0 | 0.00 | 0.00 | 0.00 | 38 | 1013.7 |
| 20260508072904 | 66 | 81 | 0.0 | 0.0 | 0.00 | 0.00 | 0.00 | 38 | 1013.7 |
| 20260508071903 | 67 | 81 | 0.0 | 0.0 | 0.00 | 0.00 | 0.00 | 37 | 1013.6 |
| 20260508071403 | 67 | 81 | 0.0 | 0.0 | 0.00 | 0.00 | 0.00 | 36 | 1013.7 |
| 20260508070903 | 67 | 81 | 0.0 | 0.0 | 0.00 | 0.00 | 0.00 | 35 | 1013.6 |
| 20260508070402 | 68 | 81 | 0.0 | 0.0 | 0.00 | 0.00 | 0.00 | 34 | 1013.7 |
| 20260508065904 | 68 | 81 | 0.0 | 0.0 | 0.00 | 0.00 | 0.00 | 33 | 1013.6 |
| 20260508065403 | 68 | 81 | 0.0 | 0.0 | 0.00 | 0.00 | 0.00 | 33 | 1013.6 |
| 20260508064903 | 69 | 81 | 0.0 | 0.0 | 0.00 | 0.00 | 0.00 | 32 | 1013.6 |
| 20260508064402 | 69 | 81 | 0.0 | 0.0 | 0.00 | 0.00 | 0.00 | 32 | 1013.6 |
| 20260508063903 | 69 | 81 | 0.0 | 0.0 | 0.00 | 0.00 | 0.00 | 32 | 1013.7 |
| 20260508063403 | 69 | 81 | 0.0 | 1.0 | 0.00 | 0.00 | 0.00 | 32 | 1013.7 |
| 20260508062903 | 69 | 81 | 0.0 | 1.0 | 0.00 | 0.00 | 0.00 | 32 | 1013.7 |
| 20260508062402 | 70 | 81 | 0.0 | 1.0 | 0.00 | 0.00 | 0.00 | 31 | 1013.8 |
| 20260508061904 | 70 | 81 | 0.0 | 1.0 | 0.00 | 0.00 | 0.00 | 30 | 1013.8 |
| 20260508061403 | 70 | 81 | 0.0 | 1.0 | 0.00 | 0.00 | 0.00 | 30 | 1013.8 |
| 20260508060904 | 71 | 81 | 0.0 | 1.0 | 0.00 | 0.00 | 0.00 | 29 | 1013.8 |
| 20260508055903 | 71 | 82 | 0.0 | 3.0 | 0.00 | 0.00 | 0.00 | 28 | 1013.8 |
| 20260508054902 | 71 | 61 | 1.0 | 2.0 | 0.00 | 0.00 | 0.00 | 29 | 1013.8 |
| 20260508054403 | 72 | 61 | 0.0 | 1.0 | 0.00 | 0.00 | 0.00 | 28 | 1013.9 |
| 20260508053903 | 72 | 61 | 0.0 | 1.0 | 0.00 | 0.00 | 0.00 | 28 | 1013.9 |
| 20260508053403 | 73 | 61 | 0.0 | 1.0 | 0.00 | 0.00 | 0.00 | 26 | 1013.8 |
| 20260508052902 | 73 | 61 | 0.0 | 2.0 | 0.00 | 0.00 | 0.00 | 26 | 1013.7 |
| 20260508052404 | 73 | 61 | 0.0 | 2.0 | 0.00 | 0.00 | 0.00 | 25 | 1013.7 |
| 20260508051903 | 73 | 64 | 1.0 | 2.0 | 0.00 | 0.00 | 0.00 | 25 | 1013.7 |
| 20260508051402 | 73 | 67 | 1.0 | 2.0 | 0.00 | 0.00 | 0.00 | 26 | 1013.7 |
| 20260508045402 | 75 | 61 | 0.0 | 2.0 | 0.00 | 0.00 | 0.00 | 25 | 1013.3 |
| 20260508044402 | 77 | 70 | 1.0 | 3.0 | 0.00 | 0.00 | 0.00 | 22 | 1013.2 |
| 20260508043903 | 78 | 82 | 1.0 | 3.0 | 0.00 | 0.00 | 0.00 | 20 | 1013.2 |
| 20260508042903 | 78 | 163 | 0.0 | 5.0 | 0.00 | 0.00 | 0.00 | 19 | 1013.0 |
| 20260508042402 | 79 | 201 | 2.0 | 8.0 | 0.00 | 0.00 | 0.00 | 19 | 1013.0 |
| 20260508041902 | 79 | 241 | 2.0 | 10.0 | 0.00 | 0.00 | 0.00 | 19 | 1012.9 |
| 20260508041404 | 79 | 224 | 4.0 | 10.0 | 0.00 | 0.00 | 0.00 | 19 | 1012.8 |
| 20260508040403 | 79 | 238 | 5.0 | 10.0 | 0.00 | 0.00 | 0.00 | 19 | 1012.8 |
| 20260508035904 | 79 | 228 | 3.0 | 8.0 | 0.00 | 0.00 | 0.00 | 18 | 1012.6 |
| 20260508035403 | 79 | 244 | 3.0 | 8.0 | 0.00 | 0.00 | 0.00 | 18 | 1012.6 |
| 20260508034902 | 80 | 235 | 4.0 | 8.0 | 0.00 | 0.00 | 0.00 | 18 | 1012.6 |
| 20260508034403 | 80 | 224 | 3.0 | 8.0 | 0.00 | 0.00 | 0.00 | 18 | 1012.5 |
| 20260508033902 | 80 | 221 | 4.0 | 9.0 | 0.00 | 0.00 | 0.00 | 18 | 1012.3 |
| 20260508033402 | 80 | 218 | 1.0 | 9.0 | 0.00 | 0.00 | 0.00 | 18 | 1012.3 |
| 20260508032904 | 80 | 258 | 0.0 | 5.0 | 0.00 | 0.00 | 0.00 | 17 | 1012.0 |
| 20260508032403 | 80 | 200 | 2.0 | 5.0 | 0.00 | 0.00 | 0.00 | 17 | 1011.9 |
| 20260508031903 | 80 | 169 | 1.0 | 7.0 | 0.00 | 0.00 | 0.00 | 17 | 1011.9 |
| 20260508031403 | 80 | 219 | 1.0 | 7.0 | 0.00 | 0.00 | 0.00 | 17 | 1011.8 |
| 20260508025902 | 81 | 235 | 2.0 | 6.0 | 0.00 | 0.00 | 0.00 | 16 | 1011.4 |
| 20260508025403 | 82 | 248 | 1.0 | 8.0 | 0.00 | 0.00 | 0.00 | 16 | 1011.3 |
| 20260508024903 | 82 | 240 | 3.0 | 8.0 | 0.00 | 0.00 | 0.00 | 15 | 1011.2 |
| 20260508023903 | 83 | 248 | 2.0 | 7.0 | 0.00 | 0.00 | 0.00 | 12 | 1011.0 |
| 20260508023402 | 83 | 221 | 1.0 | 7.0 | 0.00 | 0.00 | 0.00 | 12 | 1010.8 |
| 20260508022903 | 83 | 247 | 2.0 | 7.0 | 0.00 | 0.00 | 0.00 | 12 | 1010.7 |
| 20260508022402 | 84 | 232 | 3.0 | 7.0 | 0.00 | 0.00 | 0.00 | 12 | 1010.6 |
| 20260508021403 | 84 | 233 | 3.0 | 8.0 | 0.00 | 0.00 | 0.00 | 12 | 1010.5 |
| 20260508020903 | 85 | 219 | 1.0 | 8.0 | 0.00 | 0.00 | 0.00 | 12 | 1010.4 |
| 20260508020403 | 85 | 223 | 3.0 | 8.0 | 0.00 | 0.00 | 0.00 | 12 | 1010.4 |
| 20260508015903 | 85 | 239 | 2.0 | 8.0 | 0.00 | 0.00 | 0.00 | 12 | 1010.2 |
| 20260508015403 | 85 | 240 | 3.0 | 8.0 | 0.00 | 0.00 | 0.00 | 12 | 1010.2 |
| 20260508014903 | 86 | 217 | 2.0 | 10.0 | 0.00 | 0.00 | 0.00 | 12 | 1010.1 |
| 20260508014403 | 86 | 208 | 3.0 | 10.0 | 0.00 | 0.00 | 0.00 | 11 | 1010.1 |
| 20260508013403 | 86 | 188 | 2.0 | 7.0 | 0.00 | 0.00 | 0.00 | 11 | 1010.0 |
| 20260508012903 | 87 | 216 | 3.0 | 7.0 | 0.00 | 0.00 | 0.00 | 11 | 1009.9 |